TLR155 HLLB-LGAV

Flight info

Callsign TLR155
Flight time 1h 9m
Altitude 31000
Route REDFI1F REDFI M1 RASNO DCT NEVIK UP32 MONUV/N0407F320 UY151 VELOP
Aircraft RJ1H/M-SDFGIRWY/LB1

Departure

Time 2026-04-25 12:24
Airport Benina International Airport (HLLB)

Arrival

Time 2026-04-25 13:34
Airport Athens Eleftherios Venizelos International Airport (LGAV)
Time Latitude Longitude Altitude Speed Heading
2026-04-25 12:22 32.08121 20.27541 414 ft 13 kts 62°
2026-04-25 12:22 32.08165 20.27621 413 ft 9 kts 58°
2026-04-25 12:23 32.08169 20.27629 413 ft 0 kts 58°
2026-04-25 12:23 32.08173 20.27635 413 ft 2 kts 58°
2026-04-25 12:23 32.08208 20.27701 412 ft 12 kts 57°
2026-04-25 12:23 32.08289 20.27707 411 ft 12 kts 329°
2026-04-25 12:24 32.08452 20.27597 415 ft 69 kts 330°
2026-04-25 12:24 32.09138 20.27133 587 ft 141 kts 330°
2026-04-25 12:24 32.10035 20.26545 1531 ft 147 kts 330°
2026-04-25 12:24 32.10911 20.26022 2668 ft 146 kts 334°
2026-04-25 12:25 32.11918 20.25481 3280 ft 171 kts 334°
2026-04-25 12:25 32.13155 20.25183 3506 ft 193 kts 10°
2026-04-25 12:25 32.14324 20.26021 3771 ft 213 kts 50°
2026-04-25 12:25 32.15387 20.27355 3824 ft 237 kts 31°
2026-04-25 12:26 32.16904 20.28235 4444 ft 245 kts 25°
2026-04-25 12:26 32.18444 20.29113 5408 ft 247 kts 25°
2026-04-25 12:26 32.20011 20.29980 6319 ft 251 kts 24°
2026-04-25 12:26 32.21610 20.30838 7194 ft 254 kts 24°
2026-04-25 12:27 32.23237 20.31688 8042 ft 258 kts 23°
2026-04-25 12:27 32.24932 20.32548 8635 ft 272 kts 22°
2026-04-25 12:27 32.26716 20.33448 9236 ft 284 kts 23°
2026-04-25 12:27 32.28542 20.34388 10012 ft 288 kts 23°
2026-04-25 12:28 32.30392 20.35346 10763 ft 292 kts 23°
2026-04-25 12:28 32.32264 20.36318 11489 ft 295 kts 23°
2026-04-25 12:28 32.34158 20.37290 12189 ft 298 kts 22°
2026-04-25 12:28 32.36076 20.38263 12840 ft 302 kts 23°
2026-04-25 12:29 32.38009 20.39262 13464 ft 304 kts 23°
2026-04-25 12:29 32.39958 20.40272 14063 ft 307 kts 23°
2026-04-25 12:29 32.41924 20.41293 14642 ft 310 kts 23°
2026-04-25 12:29 32.43906 20.42321 15178 ft 313 kts 23°
2026-04-25 12:30 32.45912 20.43347 15706 ft 315 kts 22°
2026-04-25 12:30 32.47905 20.44365 16183 ft 318 kts 23°
2026-04-25 12:30 32.49965 20.45430 16677 ft 320 kts 23°
2026-04-25 12:30 32.52010 20.46494 17123 ft 322 kts 24°
2026-04-25 12:31 32.54032 20.47577 17549 ft 324 kts 24°
2026-04-25 12:31 32.56093 20.48687 17959 ft 326 kts 24°
2026-04-25 12:31 32.58166 20.49811 18352 ft 328 kts 24°
2026-04-25 12:31 32.60258 20.50944 18591 ft 336 kts 24°
2026-04-25 12:32 32.62422 20.52121 18601 ft 348 kts 24°
2026-04-25 12:32 32.64660 20.53334 18621 ft 360 kts 24°
2026-04-25 12:32 32.66973 20.54590 18645 ft 371 kts 24°
2026-04-25 12:32 32.69359 20.55872 18704 ft 380 kts 24°
2026-04-25 12:33 32.71779 20.57167 18988 ft 383 kts 24°
2026-04-25 12:33 32.74207 20.58479 19284 ft 384 kts 24°
2026-04-25 12:33 32.76646 20.59800 19578 ft 386 kts 24°
2026-04-25 12:33 32.79094 20.61128 19863 ft 388 kts 24°
2026-04-25 12:34 32.81551 20.62462 20146 ft 389 kts 24°
2026-04-25 12:34 32.84020 20.63802 20419 ft 391 kts 24°
2026-04-25 12:34 32.86497 20.65148 20686 ft 392 kts 24°
2026-04-25 12:34 32.88143 20.66042 20858 ft 393 kts 24°
2026-04-25 12:35 32.91483 20.67857 21200 ft 395 kts 24°
2026-04-25 12:35 32.93991 20.69221 21450 ft 397 kts 24°
2026-04-25 12:35 32.96507 20.70589 21690 ft 398 kts 24°
2026-04-25 12:35 32.99036 20.71964 21928 ft 400 kts 24°
2026-04-25 12:36 33.01569 20.73342 22160 ft 401 kts 24°
2026-04-25 12:36 33.04111 20.74725 22386 ft 403 kts 24°
2026-04-25 12:36 33.06666 20.76117 22607 ft 404 kts 24°
2026-04-25 12:36 33.09227 20.77510 22823 ft 405 kts 24°
2026-04-25 12:37 33.11796 20.78910 23034 ft 407 kts 24°
2026-04-25 12:37 33.14375 20.80316 23239 ft 408 kts 24°
2026-04-25 12:37 33.16964 20.81726 23447 ft 409 kts 24°
2026-04-25 12:37 33.19557 20.83141 23640 ft 410 kts 24°
2026-04-25 12:38 33.22161 20.84560 23834 ft 412 kts 24°
2026-04-25 12:38 33.24770 20.85985 24022 ft 413 kts 24°
2026-04-25 12:38 33.27385 20.87412 24206 ft 414 kts 24°
2026-04-25 12:38 33.30009 20.88844 24388 ft 415 kts 24°
2026-04-25 12:39 33.32607 20.90265 24530 ft 417 kts 24°
2026-04-25 12:39 33.35248 20.91706 24727 ft 417 kts 24°
2026-04-25 12:39 33.37889 20.93151 24945 ft 417 kts 24°
2026-04-25 12:39 33.40530 20.94594 25162 ft 417 kts 24°
2026-04-25 12:40 33.43166 20.96046 25363 ft 417 kts 25°
2026-04-25 12:40 33.45788 20.97521 25582 ft 416 kts 25°
2026-04-25 12:40 33.48415 20.98972 25785 ft 416 kts 24°
2026-04-25 12:40 33.51043 21.00419 25987 ft 415 kts 24°
2026-04-25 12:41 33.53669 21.01864 26187 ft 415 kts 25°
2026-04-25 12:41 33.56285 21.03337 26377 ft 415 kts 25°
2026-04-25 12:41 33.58902 21.04795 26567 ft 414 kts 24°
2026-04-25 12:41 33.61525 21.06242 26754 ft 414 kts 24°
2026-04-25 12:42 33.64136 21.07680 26892 ft 413 kts 24°
2026-04-25 12:42 33.65015 21.08169 26908 ft 412 kts 25°
2026-04-25 12:42 33.69283 21.10570 26943 ft 407 kts 24°
2026-04-25 12:42 33.71855 21.11994 26941 ft 407 kts 24°
2026-04-25 12:43 33.74432 21.13417 26941 ft 408 kts 24°
2026-04-25 12:43 33.76999 21.14861 26945 ft 408 kts 25°
2026-04-25 12:43 33.82154 21.17742 26949 ft 409 kts 24°
2026-04-25 12:44 33.84739 21.19174 26951 ft 409 kts 24°
2026-04-25 12:44 33.87320 21.20632 26952 ft 410 kts 25°
2026-04-25 12:44 33.92492 21.23526 26949 ft 410 kts 24°
2026-04-25 12:45 33.95081 21.24967 26951 ft 410 kts 25°
2026-04-25 12:45 33.97661 21.26435 26945 ft 410 kts 25°
2026-04-25 12:45 34.02806 21.29307 26948 ft 410 kts 24°
2026-04-25 12:46 34.05392 21.30768 26948 ft 410 kts 25°
2026-04-25 12:46 34.08010 21.32251 26951 ft 410 kts 25°
2026-04-25 12:46 34.10566 21.33676 26950 ft 410 kts 24°
2026-04-25 12:46 34.13155 21.35132 26948 ft 411 kts 25°
2026-04-25 12:47 34.15739 21.36607 26945 ft 411 kts 25°
2026-04-25 12:47 34.18333 21.38060 26949 ft 412 kts 24°
2026-04-25 12:47 34.20934 21.39518 26947 ft 412 kts 25°
2026-04-25 12:47 34.23528 21.41002 26952 ft 413 kts 25°
2026-04-25 12:48 34.26129 21.42466 26950 ft 413 kts 24°
2026-04-25 12:48 34.28733 21.43925 26949 ft 413 kts 25°
2026-04-25 12:48 34.31328 21.45411 26950 ft 412 kts 25°
2026-04-25 12:48 34.33918 21.46905 26946 ft 412 kts 26°
2026-04-25 12:49 34.36490 21.48438 26950 ft 412 kts 26°
2026-04-25 12:49 34.39054 21.50000 26948 ft 412 kts 27°
2026-04-25 12:49 34.41603 21.51593 26947 ft 412 kts 27°
2026-04-25 12:49 34.44162 21.53169 26951 ft 413 kts 26°
2026-04-25 12:50 34.46725 21.54739 26946 ft 413 kts 26°
2026-04-25 12:50 34.49290 21.56305 26948 ft 413 kts 26°
2026-04-25 12:50 34.51857 21.57873 26951 ft 413 kts 26°
2026-04-25 12:50 34.54412 21.59462 26951 ft 413 kts 27°
2026-04-25 12:51 34.56976 21.61046 26948 ft 413 kts 26°
2026-04-25 12:51 34.59539 21.62619 26946 ft 413 kts 26°
2026-04-25 12:51 34.62105 21.64190 26947 ft 413 kts 26°
2026-04-25 12:51 34.64665 21.65774 26946 ft 413 kts 27°
2026-04-25 12:52 34.67219 21.67371 26949 ft 413 kts 26°
2026-04-25 12:52 34.69781 21.68949 26947 ft 413 kts 26°
2026-04-25 12:52 34.72346 21.70525 26948 ft 413 kts 26°
2026-04-25 12:52 34.74910 21.72100 26950 ft 413 kts 27°
2026-04-25 12:53 34.77462 21.73703 26949 ft 413 kts 27°
2026-04-25 12:53 34.79990 21.75270 26945 ft 413 kts 26°
2026-04-25 12:53 34.82555 21.76852 26944 ft 413 kts 26°
2026-04-25 12:53 34.85121 21.78431 26948 ft 413 kts 27°
2026-04-25 12:54 34.87675 21.80038 26949 ft 413 kts 27°
2026-04-25 12:54 34.90236 21.81632 26949 ft 413 kts 26°
2026-04-25 12:54 34.92797 21.83215 26945 ft 413 kts 26°
2026-04-25 12:54 34.94536 21.84287 26950 ft 413 kts 26°
2026-04-25 12:55 34.97090 21.85887 26945 ft 413 kts 27°
2026-04-25 12:55 34.98782 21.86954 26950 ft 413 kts 27°
2026-04-25 12:55 35.02211 21.89081 26947 ft 413 kts 26°
2026-04-25 12:55 35.04774 21.90668 26950 ft 413 kts 27°
2026-04-25 12:56 35.07326 21.92279 26946 ft 413 kts 27°
2026-04-25 12:56 35.09860 21.93935 26947 ft 413 kts 32°
2026-04-25 12:56 35.12226 21.95921 26950 ft 413 kts 36°
2026-04-25 12:56 35.14457 21.98134 26954 ft 413 kts 43°
2026-04-25 12:57 35.16470 22.00645 26955 ft 414 kts 48°
2026-04-25 12:57 35.18313 22.03292 26954 ft 414 kts 51°
2026-04-25 12:57 35.20107 22.06046 26953 ft 414 kts 52°
2026-04-25 12:57 35.21877 22.08827 26945 ft 414 kts 52°
2026-04-25 12:58 35.23649 22.11609 26948 ft 414 kts 52°
2026-04-25 12:58 35.25426 22.14378 26950 ft 414 kts 52°
2026-04-25 12:58 35.27217 22.17136 26942 ft 414 kts 51°
2026-04-25 12:58 35.29026 22.19876 26950 ft 414 kts 51°
2026-04-25 12:59 35.30840 22.22613 26949 ft 414 kts 51°
2026-04-25 12:59 35.32642 22.25357 26948 ft 414 kts 51°
2026-04-25 12:59 35.34431 22.28120 26950 ft 414 kts 51°
2026-04-25 12:59 35.36235 22.30870 26950 ft 414 kts 51°
2026-04-25 13:00 35.38041 22.33618 26950 ft 414 kts 51°
2026-04-25 13:00 35.39226 22.35449 26944 ft 414 kts 51°
2026-04-25 13:00 35.41614 22.39154 26947 ft 414 kts 51°
2026-04-25 13:00 35.43397 22.41932 26950 ft 414 kts 51°
2026-04-25 13:01 35.45179 22.44707 26947 ft 414 kts 51°
2026-04-25 13:01 35.46957 22.47484 26950 ft 414 kts 52°
2026-04-25 13:01 35.48739 22.50264 26944 ft 414 kts 51°
2026-04-25 13:01 35.50532 22.53033 26943 ft 414 kts 51°
2026-04-25 13:02 35.52311 22.55747 26944 ft 413 kts 47°
2026-04-25 13:02 35.54553 22.57908 26963 ft 412 kts 26°
2026-04-25 13:02 35.57178 22.59321 26971 ft 413 kts 22°
2026-04-25 13:02 35.59835 22.60669 26960 ft 414 kts 22°
2026-04-25 13:03 35.62481 22.62075 26952 ft 414 kts 24°
2026-04-25 13:03 35.65101 22.63549 26954 ft 414 kts 25°
2026-04-25 13:03 35.67695 22.65080 26952 ft 413 kts 26°
2026-04-25 13:03 35.70270 22.66648 26948 ft 413 kts 26°
2026-04-25 13:04 35.72842 22.68231 26949 ft 413 kts 26°
2026-04-25 13:04 35.75407 22.69821 26943 ft 413 kts 26°
2026-04-25 13:04 35.77976 22.71415 26949 ft 413 kts 26°
2026-04-25 13:04 35.80543 22.73012 26949 ft 413 kts 26°
2026-04-25 13:05 35.83120 22.74579 26944 ft 413 kts 26°
2026-04-25 13:05 35.85702 22.76148 26945 ft 414 kts 26°
2026-04-25 13:05 35.88277 22.77742 26947 ft 414 kts 26°
2026-04-25 13:05 35.90851 22.79330 26948 ft 413 kts 26°
2026-04-25 13:06 35.93434 22.80900 26946 ft 413 kts 26°
2026-04-25 13:06 35.96003 22.82492 26947 ft 413 kts 26°
2026-04-25 13:06 35.98538 22.84062 26947 ft 413 kts 26°
2026-04-25 13:06 36.01116 22.85630 26948 ft 413 kts 26°
2026-04-25 13:07 36.03688 22.87223 26944 ft 413 kts 26°
2026-04-25 13:07 36.06254 22.88820 26945 ft 413 kts 26°
2026-04-25 13:07 36.08835 22.90397 26949 ft 413 kts 26°
2026-04-25 13:07 36.11406 22.91985 26949 ft 413 kts 26°
2026-04-25 13:08 36.13975 22.93589 26949 ft 413 kts 26°
2026-04-25 13:08 36.16550 22.95176 26948 ft 413 kts 26°
2026-04-25 13:08 36.19130 22.96763 26949 ft 414 kts 26°
2026-04-25 13:08 36.21704 22.98373 26948 ft 415 kts 26°
2026-04-25 13:09 36.24291 22.99980 26950 ft 416 kts 26°
2026-04-25 13:09 36.26881 23.01569 26947 ft 415 kts 26°
2026-04-25 13:09 36.29459 23.03182 26947 ft 415 kts 26°
2026-04-25 13:09 36.32032 23.04794 26948 ft 414 kts 26°
2026-04-25 13:10 36.34608 23.06377 26949 ft 413 kts 26°
2026-04-25 13:10 36.37178 23.07977 26947 ft 413 kts 26°
2026-04-25 13:10 36.39740 23.09587 26946 ft 413 kts 26°
2026-04-25 13:10 36.42308 23.11187 26949 ft 413 kts 26°
2026-04-25 13:11 36.44882 23.12778 26948 ft 414 kts 26°
2026-04-25 13:11 36.47422 23.14376 26946 ft 416 kts 26°
2026-04-25 13:11 36.50000 23.15997 26951 ft 414 kts 26°
2026-04-25 13:11 36.52578 23.17589 26950 ft 413 kts 26°
2026-04-25 13:12 36.55144 23.19196 26947 ft 413 kts 26°
2026-04-25 13:12 36.57705 23.20813 26949 ft 413 kts 26°
2026-04-25 13:12 36.60272 23.22426 26949 ft 413 kts 26°
2026-04-25 13:12 36.62013 23.23501 26949 ft 413 kts 26°
2026-04-25 13:13 36.65414 23.25637 26948 ft 413 kts 26°
2026-04-25 13:13 36.67978 23.27259 26949 ft 414 kts 27°
2026-04-25 13:13 36.70553 23.28884 26724 ft 418 kts 26°
2026-04-25 13:13 36.73160 23.30501 26245 ft 419 kts 26°
2026-04-25 13:14 36.75751 23.32137 25872 ft 417 kts 26°
2026-04-25 13:14 36.78353 23.33739 25498 ft 417 kts 21°
2026-04-25 13:14 36.81162 23.34573 25141 ft 417 kts
2026-04-25 13:14 36.84060 23.34785 24781 ft 418 kts 359°
2026-04-25 13:15 36.86961 23.34563 24414 ft 418 kts 353°
2026-04-25 13:15 36.89840 23.34056 24046 ft 418 kts 350°
2026-04-25 13:15 36.92714 23.33444 23677 ft 418 kts 349°
2026-04-25 13:15 36.95585 23.32792 23306 ft 419 kts 349°
2026-04-25 13:16 36.98443 23.32121 22934 ft 417 kts 349°
2026-04-25 13:16 37.01289 23.31473 22559 ft 414 kts 349°
2026-04-25 13:16 37.04113 23.30845 22182 ft 411 kts 349°
2026-04-25 13:16 37.06924 23.30244 21807 ft 409 kts 350°
2026-04-25 13:17 37.09725 23.29676 21423 ft 407 kts 351°
2026-04-25 13:17 37.12510 23.29102 21052 ft 404 kts 350°
2026-04-25 13:17 37.15256 23.28534 20677 ft 394 kts 350°
2026-04-25 13:17 37.17925 23.27962 20287 ft 384 kts 350°
2026-04-25 13:18 37.20527 23.27401 19899 ft 375 kts 350°
2026-04-25 13:18 37.23070 23.26857 19517 ft 367 kts 350°
2026-04-25 13:18 37.25568 23.26349 19125 ft 361 kts 350°
2026-04-25 13:18 37.28037 23.25823 18742 ft 360 kts 350°
2026-04-25 13:19 37.30499 23.25293 18363 ft 358 kts 350°
2026-04-25 13:19 37.32915 23.24768 17867 ft 356 kts 350°
2026-04-25 13:19 37.35346 23.24240 17367 ft 353 kts 350°
2026-04-25 13:19 37.36981 23.23887 17032 ft 351 kts 351°
2026-04-25 13:20 37.40153 23.24166 16388 ft 348 kts 20°
2026-04-25 13:20 37.42387 23.25336 15893 ft 347 kts 23°
2026-04-25 13:20 37.44600 23.26549 15398 ft 345 kts 24°
2026-04-25 13:20 37.46782 23.27788 14901 ft 343 kts 24°
2026-04-25 13:21 37.48943 23.29044 14403 ft 341 kts 25°
2026-04-25 13:21 37.51089 23.30309 13906 ft 340 kts 25°
2026-04-25 13:21 37.53222 23.31575 13409 ft 337 kts 25°
2026-04-25 13:21 37.55328 23.32826 12908 ft 333 kts 25°
2026-04-25 13:22 37.57406 23.34071 12406 ft 329 kts 26°
2026-04-25 13:22 37.59268 23.35696 11910 ft 325 kts 43°
2026-04-25 13:22 37.60881 23.37676 11416 ft 322 kts 44°
2026-04-25 13:23 37.63955 23.41504 10405 ft 292 kts 45°
2026-04-25 13:23 37.65394 23.43332 9887 ft 295 kts 45°
2026-04-25 13:23 37.66838 23.45180 9380 ft 296 kts 45°
2026-04-25 13:23 37.68279 23.47028 8886 ft 288 kts 45°
2026-04-25 13:24 37.69636 23.48772 8391 ft 271 kts 45°
2026-04-25 13:24 37.70946 23.50436 7881 ft 260 kts 43°
2026-04-25 13:24 37.72373 23.51736 7365 ft 249 kts 31°
2026-04-25 13:24 37.73585 23.53230 6845 ft 246 kts 64°
2026-04-25 13:25 37.73865 23.55365 6452 ft 253 kts 100°
2026-04-25 13:25 37.73149 23.57344 6105 ft 246 kts 134°
2026-04-25 13:25 37.71784 23.58573 5760 ft 241 kts 151°
2026-04-25 13:25 37.70314 23.59590 5395 ft 241 kts 152°
2026-04-25 13:26 37.68968 23.60810 5019 ft 239 kts 127°
2026-04-25 13:26 37.68421 23.62745 4667 ft 239 kts 89°
2026-04-25 13:26 37.68667 23.64815 4319 ft 238 kts 78°
2026-04-25 13:26 37.69010 23.66849 4060 ft 235 kts 77°
2026-04-25 13:27 37.69380 23.68850 3949 ft 233 kts 76°
2026-04-25 13:27 37.69771 23.70836 3931 ft 235 kts 76°
2026-04-25 13:27 37.70179 23.72817 3979 ft 230 kts 73°
2026-04-25 13:27 37.70895 23.74584 3968 ft 229 kts 44°
2026-04-25 13:28 37.72172 23.75776 3962 ft 229 kts 33°
2026-04-25 13:28 37.72604 23.76140 3956 ft 230 kts 33°
2026-04-25 13:28 37.74846 23.77955 3924 ft 219 kts 32°
2026-04-25 13:28 37.76068 23.78957 3900 ft 209 kts 33°
2026-04-25 13:29 37.77269 23.80002 3896 ft 210 kts 34°
2026-04-25 13:29 37.78468 23.81095 3702 ft 216 kts 36°
2026-04-25 13:29 37.79655 23.82231 3401 ft 210 kts 37°
2026-04-25 13:30 37.81830 23.84314 2893 ft 190 kts 36°
2026-04-25 13:30 37.82878 23.85311 2636 ft 186 kts 36°
2026-04-25 13:30 37.83906 23.86289 2383 ft 184 kts 36°
2026-04-25 13:31 37.85776 23.88068 1931 ft 149 kts 36°
2026-04-25 13:31 37.86559 23.88813 1727 ft 134 kts 36°
2026-04-25 13:31 37.87290 23.89508 1542 ft 129 kts 36°
2026-04-25 13:31 37.88004 23.90185 1391 ft 128 kts 36°
2026-04-25 13:32 37.88719 23.90866 1230 ft 131 kts 36°
2026-04-25 13:32 37.89476 23.91586 1076 ft 138 kts 36°
2026-04-25 13:32 37.90238 23.92314 914 ft 138 kts 36°
2026-04-25 13:32 37.91009 23.93046 694 ft 138 kts 35°
2026-04-25 13:33 37.91776 23.93771 510 ft 136 kts 36°
2026-04-25 13:33 37.92529 23.94491 353 ft 135 kts 36°
2026-04-25 13:33 37.93249 23.95177 292 ft 119 kts 36°
2026-04-25 13:33 37.93648 23.95556 280 ft 91 kts 37°
2026-04-25 13:34 37.94044 23.95925 282 ft 29 kts 29°
2026-04-25 13:34 37.94218 23.96002 287 ft 23 kts 10°
2026-04-25 13:34 37.94298 23.96013 293 ft 3 kts 350°
2026-04-25 13:34 37.94300 23.96012 293 ft 0 kts 349°
2026-04-25 13:35 37.94314 23.96008 297 ft 5 kts 353°
2026-04-25 13:35 37.94388 23.96027 297 ft 7 kts 10°
2026-04-25 13:36 37.94417 23.96033 297 ft 3 kts
2026-04-25 13:36 37.94425 23.96025 301 ft 2 kts 285°
2026-04-25 13:36 37.94407 23.95998 298 ft 7 kts 214°
2026-04-25 13:36 37.94356 23.95952 297 ft 3 kts 217°
2026-04-25 13:37 37.94322 23.95919 298 ft 11 kts 218°
2026-04-25 13:37 37.94239 23.95840 298 ft 17 kts 217°
2026-04-25 13:37 37.94155 23.95761 299 ft 13 kts 217°
2026-04-25 13:37 37.94091 23.95700 296 ft 10 kts 217°
2026-04-25 13:38 37.94035 23.95647 298 ft 10 kts 217°
2026-04-25 13:38 37.93980 23.95595 299 ft 10 kts 216°
2026-04-25 13:38 37.93927 23.95546 296 ft 8 kts 216°
2026-04-25 13:38 37.93912 23.95531 298 ft 2 kts 216°
2026-04-25 13:39 37.93881 23.95502 298 ft 9 kts 217°
2026-04-25 13:39 37.93817 23.95442 296 ft 12 kts 217°
2026-04-25 13:39 37.93741 23.95371 297 ft 13 kts 217°
2026-04-25 13:39 37.93653 23.95286 297 ft 19 kts 218°
2026-04-25 13:40 37.93535 23.95173 298 ft 24 kts 217°
2026-04-25 13:40 37.93388 23.95033 301 ft 29 kts 217°
2026-04-25 13:40 37.93226 23.94880 299 ft 26 kts 216°
2026-04-25 13:40 37.93080 23.94742 303 ft 26 kts 217°
2026-04-25 13:41 37.92945 23.94612 302 ft 23 kts 217°
2026-04-25 13:41 37.92846 23.94519 301 ft 12 kts 216°
2026-04-25 13:41 37.92782 23.94459 303 ft 10 kts 217°
2026-04-25 13:41 37.92745 23.94425 302 ft 9 kts 217°
2026-04-25 13:42 37.92696 23.94377 304 ft 9 kts 217°
2026-04-25 13:42 37.92645 23.94329 305 ft 9 kts 217°
2026-04-25 13:42 37.92600 23.94273 303 ft 10 kts 243°
2026-04-25 13:42 37.92617 23.94190 303 ft 11 kts 303°
2026-04-25 13:43 37.92654 23.94127 301 ft 4 kts 307°
2026-04-25 13:43 37.92673 23.94098 301 ft 5 kts 321°
2026-04-25 13:43 37.92706 23.94104 304 ft 6 kts 36°
2026-04-25 13:43 37.92737 23.94134 303 ft 4 kts 38°
2026-04-25 13:44 37.92745 23.94142 302 ft 0 kts 38°